Total_Precipitation_Accumulation
0.18 0.32 0.73 1.21 2.13 2.37 1.78 1.09 0.80 0.76 0.82 0.80 0.71 0.73 0.84 1.06 1.52 2.48 2.44 2.01 1.59 1.62 2.03 2.17 2.42 2.29 2.19 2.06 2.06 2.17 2.21 2.05 1.88 1.87 1.94 1.96 2.01 1.95 1.95 2.00 2.08 2.13 2.10 2.17 2.34 2.28 2.27 2.28 2.30
0.32 0.59 1.11 1.84 2.50 1.94 1.56 0.95 0.60 0.62 0.68 0.81 0.82 0.71 0.65 0.76 0.90 1.35 1.91 2.03 1.39 1.26 1.52 1.65 1.99 2.01 1.98 1.86 1.89 1.94 1.87 1.77 1.72 1.68 1.82 1.89 1.97 2.00 1.98 2.02 2.05 2.07 2.08 2.16 2.28 2.24 2.22 2.26 2.27
0.48 0.74 1.26 2.02 1.71 1.29 1.21 0.79 0.54 0.43 0.58 0.82 0.82 0.64 0.76 1.02 1.10 1.42 1.71 1.64 1.28 1.22 1.31 1.56 1.80 1.85 1.84 1.72 1.68 1.69 1.61 1.59 1.62 1.63 1.70 1.80 1.95 2.03 2.05 2.06 2.08 2.17 2.30 2.30 2.23 2.24 2.18 2.13 2.08
0.65 0.89 1.30 1.47 0.97 0.65 0.62 0.63 0.57 0.54 0.71 0.85 0.74 0.70 0.90 1.21 1.22 1.32 1.31 1.27 1.06 1.26 1.38 1.60 1.89 1.82 1.74 1.59 1.50 1.48 1.50 1.52 1.52 1.61 1.77 1.88 1.94 1.97 2.03 2.10 2.18 2.31 2.28 2.12 2.17 2.25 2.03 1.97 2.03
0.70 1.07 1.54 1.17 0.76 0.53 0.42 0.41 0.47 0.62 0.78 0.90 0.80 0.84 1.22 1.37 1.11 1.03 1.00 1.18 1.19 1.38 1.57 1.76 1.99 1.92 1.72 1.49 1.40 1.35 1.31 1.38 1.40 1.50 1.76 1.89 1.90 1.84 1.89 2.04 2.08 2.01 2.04 2.11 2.18 2.14 2.01 1.98 2.02
0.89 1.13 1.27 0.86 0.56 0.43 0.39 0.40 0.52 0.69 0.72 0.79 0.90 1.06 1.55 1.52 1.19 1.06 1.07 1.23 1.35 1.46 1.60 1.91 2.09 2.05 1.82 1.55 1.38 1.32 1.30 1.29 1.32 1.40 1.56 1.71 1.79 1.87 2.00 2.07 1.94 1.83 1.84 1.95 2.06 2.06 2.02 1.97 2.00
1.04 1.13 0.92 0.59 0.46 0.41 0.41 0.44 0.48 0.62 0.72 0.91 0.94 1.09 1.62 1.78 1.34 1.06 1.21 1.54 1.69 1.68 1.60 1.85 2.00 1.84 1.75 1.63 1.44 1.39 1.35 1.28 1.28 1.31 1.42 1.52 1.69 1.83 1.96 2.06 2.00 1.86 1.78 1.84 1.94 1.94 2.07 1.95 1.83
0.71 0.76 0.66 0.49 0.39 0.37 0.35 0.38 0.49 0.64 0.75 0.81 0.93 1.14 1.43 1.50 1.26 1.23 1.51 2.02 2.29 2.16 1.84 1.58 1.60 1.62 1.58 1.54 1.55 1.56 1.40 1.25 1.29 1.41 1.60 1.78 1.90 1.94 2.01 2.02 2.22 2.06 1.89 1.93 2.05 1.97 1.90 1.88 1.95
0.46 0.58 0.49 0.38 0.26 0.29 0.33 0.38 0.42 0.47 0.58 0.81 1.05 1.26 1.24 1.06 1.10 1.35 1.70 2.15 2.42 2.23 2.04 1.76 1.62 1.60 1.63 1.56 1.44 1.69 1.56 1.43 1.57 1.85 2.01 2.21 2.33 2.15 2.26 2.15 2.42 2.30 2.24 2.40 2.50 2.43 2.32 2.28 2.33
0.36 0.40 0.26 0.17 0.15 0.16 0.23 0.31 0.35 0.50 0.81 1.27 1.55 1.46 1.25 1.11 1.24 1.54 1.82 1.93 2.04 2.06 1.99 2.01 1.78 1.73 1.75 1.61 1.83 2.29 2.03 2.02 2.27 2.39 2.31 2.83 3.08 2.90 2.32 2.41 2.86 2.88 2.94 3.03 3.08 3.18 3.01 2.77 2.67
0.23 0.20 0.13 0.10 0.10 0.12 0.15 0.23 0.33 0.53 1.06 1.53 1.75 1.49 1.31 1.32 1.44 1.59 1.98 2.13 2.22 2.22 2.07 2.15 2.03 1.97 2.06 2.21 2.22 2.47 2.63 2.80 2.93 2.92 2.98 3.32 3.18 2.82 2.53 2.76 3.23 3.33 3.28 3.30 3.42 3.52 3.08 3.02 3.08
0.13 0.09 0.09 0.08 0.08 0.09 0.13 0.22 0.42 0.67 1.08 1.34 1.27 1.15 1.16 1.44 1.65 1.84 2.16 2.48 2.56 2.64 2.58 2.38 2.27 2.49 2.62 2.54 2.46 2.34 2.19 2.27 2.56 2.72 2.69 3.24 3.65 3.49 3.33 3.45 3.41 3.58 3.78 4.05 3.71 3.64 3.46 3.38 3.19
0.09 0.08 0.10 0.09 0.10 0.14 0.16 0.25 0.46 0.76 0.96 1.01 0.89 0.93 1.22 1.58 1.83 2.30 2.79 2.85 2.81 3.05 3.22 3.04 2.95 2.94 2.84 2.93 2.60 2.25 2.17 2.01 2.01 2.45 2.76 2.99 3.35 3.52 3.56 3.38 3.38 3.21 3.35 3.54 3.55 3.28 3.41 3.57 3.52
0.05 0.07 0.09 0.11 0.13 0.17 0.24 0.31 0.43 0.68 0.77 0.77 0.83 1.07 1.30 1.73 2.04 2.57 3.08 3.14 3.25 3.52 3.74 3.65 3.64 3.45 3.17 2.95 2.85 2.71 2.46 2.36 2.08 2.38 2.54 2.80 3.15 3.30 3.21 3.28 3.41 3.21 3.21 3.23 3.27 3.31 3.63 3.84 3.90
0.06 0.08 0.15 0.16 0.17 0.19 0.27 0.52 0.58 0.74 0.82 0.79 0.96 1.12 1.51 1.97 2.25 2.57 2.79 3.18 3.63 4.05 4.13 4.12 4.11 4.03 4.00 3.69 3.30 2.94 2.85 2.57 2.49 2.51 2.43 2.68 3.01 3.29 3.22 3.19 3.04 3.02 3.09 3.26 3.31 3.43 3.64 3.53 3.63
0.09 0.16 0.32 0.30 0.24 0.23 0.33 0.81 0.94 0.88 0.82 0.89 1.03 1.35 1.63 1.93 2.33 2.55 2.86 3.22 3.65 4.21 4.62 4.72 4.20 4.20 4.29 4.24 3.93 3.46 3.37 3.21 3.01 2.71 2.58 2.59 2.86 2.98 3.05 2.87 2.77 2.83 2.72 2.86 3.12 3.17 3.26 3.40 3.59
0.14 0.20 0.29 0.38 0.27 0.26 0.40 0.93 1.25 0.98 0.80 0.93 1.19 1.47 1.83 2.07 2.48 2.60 2.78 3.07 3.56 4.49 5.42 5.45 4.94 4.54 4.27 4.24 4.31 4.14 3.95 3.63 3.17 2.93 2.85 2.72 2.60 2.41 2.51 2.54 2.65 2.53 2.51 2.62 2.48 2.98 3.20 3.34 3.45
0.12 0.17 0.30 0.44 0.31 0.31 0.47 0.90 0.97 0.88 1.01 1.01 1.06 1.24 1.56 1.70 2.01 2.27 2.55 3.12 3.96 5.19 5.99 5.90 5.29 4.88 4.57 4.39 4.24 4.23 3.97 3.72 3.27 3.08 2.91 2.64 2.63 2.29 2.33 2.31 2.42 2.32 2.46 2.70 2.88 3.20 3.18 3.07 3.15
0.10 0.16 0.28 0.33 0.27 0.38 0.52 0.81 0.92 1.01 1.16 1.17 1.03 1.05 1.33 1.53 1.81 2.28 2.82 3.68 4.79 5.74 6.02 5.53 5.09 4.78 4.38 4.03 3.45 3.14 3.25 3.23 2.99 2.68 2.35 2.28 2.18 2.24 2.46 2.23 2.45 2.29 2.41 2.54 2.64 2.83 2.88 2.77 2.83
0.11 0.17 0.27 0.32 0.24 0.31 0.51 0.86 1.18 1.15 1.07 1.01 1.08 1.11 1.19 1.55 2.00 2.73 3.74 4.33 4.61 4.75 4.49 4.17 3.95 3.77 3.30 3.07 2.98 2.79 2.85 2.62 2.47 2.39 2.45 2.07 1.95 2.02 2.00 2.28 2.28 2.30 2.52 2.55 2.55 2.76 2.74 2.53 2.59
0.14 0.18 0.26 0.32 0.23 0.29 0.54 1.06 1.35 1.31 1.07 0.93 1.00 1.03 1.18 1.58 2.18 3.01 3.59 3.72 3.48 3.14 3.02 2.98 3.08 2.83 2.72 2.81 2.76 2.71 2.80 2.53 2.35 2.28 2.36 2.00 1.75 1.76 1.88 1.99 2.14 2.37 2.29 2.48 2.56 2.48 2.59 2.64 2.60
0.13 0.12 0.12 0.15 0.24 0.45 0.65 1.32 1.53 1.32 1.22 1.03 1.05 1.05 1.07 1.35 1.74 2.18 2.46 2.34 2.44 2.57 2.58 2.72 2.82 2.55 2.55 2.52 2.29 2.24 2.22 2.13 2.09 2.11 2.20 2.26 1.88 1.71 1.71 1.82 2.01 2.22 2.13 2.40 2.16 2.29 2.57 2.67 2.51
0.07 0.07 0.10 0.17 0.32 0.53 0.72 1.03 1.25 1.09 1.25 1.03 0.92 0.92 0.87 1.06 1.23 1.36 1.47 1.58 1.77 1.90 2.08 2.35 2.60 2.55 2.39 2.22 2.22 2.29 2.15 2.16 2.16 2.19 2.28 2.38 2.14 1.87 1.69 1.80 2.00 2.10 2.05 2.10 2.12 2.47 2.47 2.39 2.36
0.07 0.10 0.20 0.31 0.51 1.02 0.97 0.95 1.18 1.17 1.24 1.03 0.89 0.76 0.79 0.93 1.08 1.16 1.18 1.29 1.45 1.60 1.83 2.07 2.39 2.47 2.37 2.23 2.16 2.24 2.30 2.30 2.24 2.28 2.28 2.11 2.06 2.02 1.85 1.86 1.99 1.96 1.93 1.95 2.01 2.28 2.30 2.40 2.48
0.09 0.13 0.37 0.73 1.10 1.27 0.83 0.90 1.16 1.04 0.92 0.79 0.62 0.58 0.69 0.88 1.03 1.15 1.15 1.14 1.21 1.36 1.49 1.56 1.78 2.06 2.18 2.15 2.13 2.15 2.32 2.25 2.07 1.99 1.98 1.96 1.78 1.71 1.77 1.85 2.01 1.85 1.79 1.85 2.09 2.22 2.22 2.35 2.38
0.07 0.09 0.22 0.39 0.49 0.65 0.81 1.19 1.30 1.02 0.70 0.46 0.44 0.56 0.74 0.88 0.96 1.06 1.07 1.01 1.02 1.10 1.28 1.43 1.71 1.87 2.05 2.08 2.05 2.09 2.17 2.07 1.91 1.93 1.74 1.75 1.70 1.61 1.69 1.76 1.78 1.74 1.76 1.76 2.13 2.03 2.08 2.21 2.13
0.08 0.08 0.09 0.16 0.21 0.45 0.83 1.13 1.09 0.87 0.70 0.54 0.51 0.56 0.73 0.79 0.78 0.90 0.94 1.04 1.08 1.04 1.14 1.30 1.61 1.91 2.11 2.19 2.22 2.16 2.17 2.16 2.10 2.02 1.78 1.60 1.75 1.64 1.73 1.79 1.79 1.81 1.95 2.09 2.27 2.11 2.14 2.24 2.03
0.08 0.09 0.11 0.12 0.22 0.38 0.67 1.08 1.26 1.07 0.85 0.70 0.63 0.62 0.72 0.75 0.77 0.99 1.14 1.13 1.01 0.90 0.96 1.13 1.42 1.88 2.14 2.26 2.21 2.07 2.22 2.14 2.10 2.02 1.84 1.68 1.66 1.68 1.81 1.98 1.97 2.02 2.06 2.19 2.30 2.10 2.19 2.20 2.09
0.09 0.10 0.12 0.12 0.15 0.24 0.53 0.75 0.72 0.67 0.64 0.67 0.74 0.73 0.61 0.68 0.84 1.06 1.30 1.22 0.96 0.85 0.84 1.00 1.35 1.68 1.90 2.05 2.10 1.98 1.93 1.86 1.86 1.88 1.85 1.82 1.81 1.75 1.78 1.92 1.99 1.96 2.02 2.12 2.22 2.04 2.10 2.07 2.10
0.11 0.13 0.16 0.19 0.17 0.16 0.29 0.53 0.42 0.48 0.58 0.68 0.81 0.87 0.83 0.86 0.92 0.98 1.13 1.24 1.13 0.99 0.93 1.10 1.39 1.59 1.70 1.77 1.80 1.80 1.81 1.79 1.71 1.67 1.74 1.80 1.71 1.63 1.70 1.78 1.77 1.71 1.84 2.03 2.05 1.96 2.03 2.08 2.05